Stove Prairie

Current Conditions

Time: 12/12/2018 09:15 PM MST
Location: 105° 21' 25'' W40° 37' 9'' N
Elevation: 7,349 FT

Air Temperature: 26°F
Surface Temperature: 24°F
Dew Point Temperature: 9°F
Relative Humidity: 48%
Visibility: 6,562 FT
Pressure: 771 MB
Precipitation: None

Click a photo to enlarge.

358°10 mph
Wind from @ 10 mph

Past 24 Hours

Previous 24h observations for Stove Prairie
Time Surface
(°F)
Air Temp
(°F)
Dew Point
(°F)
Relative
Humidity
Precip. Wind Direction Wind Speed (mph) Visibility (ft) Pressure
(mb)
09:15 PM2426948NoneN106,562771
09:00 PM2426845NoneN106,562770
08:45 PM2427844NoneN96,562770
08:30 PM2427742NoneNNW126,562769
08:15 PM2427742NoneNNW156,562769
08:00 PM2427742NoneNNW116,562769
07:45 PM2527742NoneNNW136,562768
07:30 PM2527843NoneNNW146,562768
07:15 PM2527742NoneNNW126,562768
07:00 PM2627946NoneNNW156,562768
06:45 PM27271048NoneNNW156,562768
06:30 PM27271048NoneNNW126,562768
06:15 PM27281150NoneNW96,562768
06:00 PM27291453NoneNNW126,562768
05:45 PM28291656NoneNNW106,562768
05:30 PM28291762NoneNNW96,562768
05:15 PM28301758Light SnowNW96,562768
05:00 PM29321652Light RainNNW96,562768
04:45 PM30331343NoneNW66,562767
04:30 PM31331750NoneNW46,562767
04:15 PM32331955NoneNW46,562767
04:00 PM32332058NoneNNW46,562767
03:45 PM33331955Light SnowNW46,562767
03:30 PM33341750NoneNW96,562766
03:15 PM33361644NoneNNW66,562766
03:00 PM34361541NoneWNW46,562766
02:45 PM35371439NoneNW56,562766
02:30 PM35371643NoneNW36,562766
02:15 PM35371643NoneN56,562766
02:00 PM35371644NoneNW76,562766
01:45 PM35371540NoneNW86,562765
01:30 PM35381335NoneWNW36,562765
01:15 PM36381335NoneNW86,562765
01:00 PM36391334NoneWNW46,562765
12:45 PM36401232NoneNNW116,562765
12:30 PM37401130NoneSW26,562766
12:15 PM36401029NoneNW66,562766
12:00 PM35411027NoneNW56,562766
11:45 AM3541825NoneWNW46,562766
11:30 AM3542623NoneSSW36,562766
11:15 AM3441522NoneWNW56,562766
11:00 AM3442420NoneNW36,562767
10:45 AM3342118NoneNW36,562767
10:30 AM3241118NoneNW46,562767
10:15 AM3042-017NoneNW56,562767
10:00 AM2942-314NoneWSW56,562767
09:45 AM2942-315NoneSW56,562767
09:30 AM2742-911NoneSW36,562767
09:15 AM2541-1011NoneWSW26,562767
09:00 AM2441-1210NoneNW16,562767
08:45 AM2342-129NoneNNW36,562767
08:30 AM2343-138NoneSSW36,562767
08:15 AM2344-139NoneNW56,562767
08:00 AM2244-129NoneNNW56,562767
07:45 AM2143-139NoneNW26,562767
07:30 AM2244-158NoneNW56,562767
07:15 AM2043-168NoneN56,562767
07:00 AM2043-167NoneNNW56,562767
06:45 AM2044-148NoneSSW26,562767
06:30 AM2143-129NoneN26,562767
06:15 AM2243-129NoneNW26,562767
06:00 AM2142-129NoneN16,562767
05:45 AM1939-1111NoneE26,562767
05:30 AM2042-139NoneWSW26,562767
05:15 AM2141-129NoneNNW56,562767
05:00 AM2042-129NoneNNE46,562767
04:45 AM2142-1110NoneWSW26,562768
04:30 AM2041-129NoneSE36,562768
04:15 AM2243-129NoneWSW46,562768
04:00 AM2142-129NoneWSW56,562768
03:45 AM2141-1210NoneWSW66,562768
03:30 AM2042-129NoneWNW46,562768
03:15 AM2142-139NoneNW56,562768
03:00 AM2242-129NoneW86,562769
02:45 AM2141-1310NoneSE46,562769
02:30 AM2240-1111NoneN56,562769
02:15 AM2240-1011NoneN96,562769
02:00 AM2240-1011NoneNNW86,562769
01:45 AM2340-911NoneNNW76,562769
01:30 AM2340-912NoneNW86,562769
01:15 AM2240-812NoneW66,562769
01:00 AM2241-812NoneW36,562769
12:45 AM2241-912NoneNW66,562769
12:30 AM2242-911NoneW86,562769
12:15 AM2141-911NoneNNW86,562769
12:00 AM2141-911NoneWNW96,562770
11:45 PM2041-812NoneW46,562770
11:30 PM2141-912NoneWNW86,562770
11:15 PM2041-911NoneWNW56,562770
11:00 PM2041-911NoneWNW56,562770
10:45 PM2141-911NoneSE36,562770
10:30 PM1938-813NoneE66,562770
10:15 PM1938-913NoneSSE26,562770
10:00 PM1939-813NoneNE26,562771
09:45 PM2240-912NoneNNW76,562771
09:30 PM2039-713NoneNNW56,562771

Red Feather Lakes

Current Conditions

Time: 12/12/2018 09:15 PM MST
Location: 105° 34' 27'' W40° 47' 25'' N
Elevation: 8,238 FT

Air Temperature: 20°F
Surface Temperature: 21°F
Dew Point Temperature: 10°F
Relative Humidity: 64%
Visibility: 6,562 FT
Pressure: 745 MB
Precipitation: Light Snow

Click a photo to enlarge.

316°15 mph
Wind from @ 15 mph

Past 24 Hours

Previous 24h observations for Red Feather Lakes
Time Surface
(°F)
Air Temp
(°F)
Dew Point
(°F)
Relative
Humidity
Precip. Wind Direction Wind Speed (mph) Visibility (ft) Pressure
(mb)
09:15 PM21201064Light SnowNW156,562745
09:00 PM21201063Light SnowNW186,562745
08:45 PM2121960Light SnowWNW176,562745
08:30 PM2121856NoneWNW206,562744
08:15 PM2221755NoneWNW166,562744
08:00 PM2221753NoneWNW206,562744
07:45 PM2321754NoneWNW196,562744
07:30 PM2421754NoneNW186,562744
07:15 PM2321857NoneWNW216,562744
07:00 PM24211061Light SnowNW176,562744
06:45 PM2522855Light SnowNW206,562744
06:30 PM2622853NoneNW206,562744
06:00 PM2722956NoneNW176,562744
05:45 PM28231057Light SnowNW216,562743
05:30 PM28241260Light SnowNNW146,562743
05:15 PM28241157Light SnowNW226,562742
05:00 PM29261255Light SnowNW186,562742
04:45 PM31271047Light SnowNW156,562742
04:30 PM33281354Light SnowWNW166,562741
04:15 PM35291453NoneWNW116,562741
04:00 PM36291351NoneWNW166,562741
03:45 PM38291451Light SnowWNW156,562741
03:30 PM40301349Light SnowWNW226,562741
03:15 PM40311347NoneNW196,562740
03:00 PM41311347NoneWNW146,562740
02:45 PM42311346NoneW146,562740
02:30 PM42311346NoneW176,562740
02:15 PM41321345NoneW206,562740
02:00 PM42311346NoneWNW206,562740
01:45 PM41311550Light SnowW176,562740
01:30 PM42321345Light RainW206,562740
01:15 PM45331241NoneWNW236,562740
01:00 PM48351137NoneWNW146,562740
12:45 PM47341137NoneWNW166,562740
12:30 PM40341037NoneWNW66,562740
12:15 PM38341037NoneWNW96,562740
12:00 PM38341036NoneWNW116,562740
11:45 AM36341036NoneW96,562740
11:30 AM3234935NoneNNW86,562741
11:15 AM3635832NoneWSW136,562741
11:00 AM3135730NoneN106,562741
10:45 AM3136729NoneENE76,562741
10:30 AM3238525NoneESE66,562741
10:15 AM2937324NoneSW66,562741
10:00 AM2536224NoneE76,562741
09:45 AM2335-319NoneNE56,562741
09:30 AM2135-617NoneWSW56,562741
09:15 AM2036-815NoneWNW46,562741
09:00 AM2237-616NoneW156,562741
08:45 AM2034-815NoneW166,562741
08:30 AM1933-916NoneWSW96,562741
08:15 AM1732-916NoneWSW56,562741
08:00 AM1734-1014NoneSSW76,562741
07:45 AM1835-1213NoneSSW66,562741
07:30 AM1634-1213NoneN06,562741
07:15 AM1535-1312NoneESE26,562741
07:00 AM1536-1411NoneW96,562742
06:45 AM1637-1211NoneW166,562742
06:30 AM1635-914NoneWNW46,562742
06:15 AM1733-1014NoneNNE86,562741
06:00 AM1834-1015NoneNE126,562741
05:45 AM1833-916NoneNNE106,562741
05:30 AM1733-817NoneN36,562741
05:15 AM1533-915NoneNW46,562742
05:00 AM1735-1113NoneSSE46,562742
04:45 AM1835-1013NoneSSW116,562742
04:30 AM1834-915NoneESE116,562742
04:15 AM1834-915NoneSSE96,562742
04:00 AM1834-915NoneSE66,562742
03:45 AM1734-816NoneESE76,562742
03:30 AM1935-815NoneSW156,562742
03:15 AM1834-816NoneSSW96,562742
03:00 AM1934-716NoneSSE86,562742
02:45 AM1833-717NoneSSE76,562742
02:30 AM1834-717NoneSE76,562743
02:15 AM1834-717NoneS66,562743
02:00 AM1934-617NoneWNW56,562743
01:45 AM2033-519NoneW66,562743
01:30 AM2133-222NoneWNW116,562743
01:15 AM2232-024NoneWNW196,562743
01:00 AM2233-023NoneW256,562743
12:45 AM2233-123NoneW256,562744
12:30 AM2233-123NoneW286,562743
12:15 AM2233-023NoneW346,562743
12:00 AM2133-123NoneW266,562743
11:45 PM2133-122NoneW216,562743
11:30 PM2033-222NoneWSW176,562744
11:15 PM2033-222NoneWSW226,562744
11:00 PM2033-123NoneW226,562744
10:45 PM2033-123NoneW216,562744
10:30 PM2133-123NoneW196,562744
10:15 PM2133-123NoneW276,562744
10:00 PM2133-024NoneW336,562744
09:45 PM2033-024NoneW266,562745
09:30 PM2032025NoneW246,562745

Time to refresh Minute(s) Second(s)